Regional Weather Roundup
Issued by NWS

Home | Current Version | Previous Version | Text Only | Print | Product List | Glossary On
Versions: 1 2 3 4 5 6 7 8 9 10 11 12 13 14 15 16 17 18 19 20 21 22 23 24 25 26 27 28 29 30 31 32 33 34 35 36 37 38 39 40 41 42 43 44 45 46 47 48 49 50
000
ASUS43 KBIS 020010
RWRND

NORTH DAKOTA REGIONAL WEATHER ROUNDUP
NATIONAL WEATHER SERVICE BISMARCK ND
700 PM CDT WED OCT 01 2014

NOTE: "FAIR" INDICATES FEW OR NO CLOUDS BELOW 12,000 FEET WITH NO
SIGNIFICANT WEATHER AND/OR OBSTRUCTIONS TO VISIBILITY.


NDZ001>003-009>011-017-020100-
NORTHWEST NORTH DAKOTA

CITY           SKY/WX    TMP DP  RH WIND       PRES   REMARKS
WILLISTON      MOCLDY    55  45  68 NW14G22   29.81R
6HR MIN TEMP:  54; 6HR MAX TEMP:  59; 6HR PCP: TRACE;

MINOT          CLOUDY    55  44  66 W18       29.74R
MINOT AFB      MOCLDY    54  48  80 NW12      29.74R
$$

NDZ018>021-031>035-040>046-020100-
SOUTHWEST NORTH DAKOTA

CITY           SKY/WX    TMP DP  RH WIND       PRES   REMARKS
BISMARCK       CLOUDY    59  49  69 W8        29.80R
6HR MIN TEMP:  58; 6HR MAX TEMP:  64;

DICKINSON      CLOUDY    54  45  71 NW16      29.83R
GARRISON         N/A     55  46  71 W12       29.76R
6HR MIN TEMP:  54; 6HR MAX TEMP:  60;

HETTINGER ARPT CLOUDY    53  44  71 W12       29.87R
$$

NDZ004>008-012>016-024-026-027-054-020100-
NORTHEAST NORTH DAKOTA

CITY           SKY/WX    TMP DP  RH WIND       PRES   REMARKS
GRAND FORKS    MOCLDY    62  54  74 SW7       29.66R
GRND FRKS AFB  MOCLDY    60  54  79 W7        29.68R
DEVILS LAKE    CLOUDY    59  46  63 W17       29.68R
$$

NDZ022-023-025-028>030-036>039-047>053-020100-
SOUTHEAST NORTH DAKOTA

CITY           SKY/WX    TMP DP  RH WIND       PRES   REMARKS
FARGO          CLOUDY    64  50  60 W10       29.72R
6HR MIN TEMP:  64; 6HR MAX TEMP:  72;

JAMESTOWN      CLOUDY    59  50  72 W13       29.74R
$$




USA.gov is the U.S. government's official web portal to all federal, state and local government web resources and services.